DECAYED

DELTA 4 DEB, 51481 (Decayed)

Orbit data source: Space-Track

DELTA 4 DEB, 51481 was space debris in LEO originally from a launch on Fri, 12 Jan 2018 UTC launched from the Air Force Western Test Range (AFWTR). Debris objects in space refer to the collection of defunct objects orbiting the Earth. Examples of debris include non-operational satellites, rocket bodies, and fragments generated from explosions, collisions, or faulty payload assembly.

Not visible in the next 10 days
Identifier
51481, 2018-005C
Orbit
Decayed
Country
Flag of USUS
Related business
Manufacturer
LMSS Denver
Mission
Decayed spacecraft
Bus & Motor
Unknown
Mass
Unknown
Launch date (UTC)
2018-01-12 (8 years ago)
Launch vehicle
Unknown
Launch site
Air Force Western Test Range (AFWTR)
Object type
Payload
Rocket body
Debris
Shape & HBR
Unknown shape, 0.1 m
Radar Cross Section
Medium (>0.1 m² and <1 m²)

Expand to show TLE details & history
Last TLE update: 1 year ago

TLE from 1 year ago
0 DELTA 4 DEB
1 51481U 18005C   25136.14723287  .03683302  00000-0  77754-1 0  9990
2 51481 105.8774 335.4294 0026328 295.5809  64.2679 15.40957464370012
Epoch: 2025-05-16T03:32Z
TLE epoch observation values (Epoch: 2025-05-16T03:32:00.919Z)
Latitude
-0.00007°
Longitude
48.31851°
Altitude
438.264 km
Speed
7.653 km/s
True Right ascension
22h 21m 43s
True Declination
0° 00' 00"
Sunlit
Object was in daylight at epoch
Visualization orbit readout
Latitude
Unknown
Longitude
Unknown
Altitude
Unknown
Speed
Unknown
Apparent Right ascension
Unknown
Apparent Declination
Unknown
Sunlit
N/A
Visualization observer readout
Local Sidereal Time
21:33:06
Azimuth
Unknown
Elevation
Unknown
Doppler factor
Unknown
Orbital elements
Apogee altitude
458.737 km
Perigee altitude
422.831 km
Semi-major axis
6,818.921 km
Eccentricity
0.00263
Inclination
105.8774°
RAAN
335.4294°
Arg. of periapsis
295.5809°
True anomaly
64.54007°
Mean anomaly
64.2679°
Eccentric anomaly
64.40394°
Mean motion
3.85451 °/min
Orbital period
93.4 mins
BSTAR
0.077754
Loading maneuver chart data...
Computing Atmospheric mass density...
Loading historical data...
Loading historical data...
Loading historical data...
Loading historical data...
Loading historical data...
Loading historical data...
Loading historical data...

Documentation

Showing up to 5 results
|